User: anonymous   Login
Location: Unspecified
(0.0000°N, 0.0000°E)
Time: 16:56:45
(UTC+00:00)
Language:

COSMOS 2482 - Orbit

View from above orbital plane
View from above orbital plane
View from above satellite
View from above satellite

Ground track
Ground track

The orbit data is extracted from the following two-line orbital elements,

1 39057U 13001A   19017.46791844  .00000021  00000-0  80082-4 0  9995
2 39057  82.4993 104.7803 0027634 169.0453 191.1233 12.42896854272408
Epoch (UTC): 17 January 2019 11:13:48
Eccentricity: 0.0027634
inclination: 82.4993°
perigee height: 1472 km
apogee height: 1516 km
right ascension of ascending node: 104.7803°
argument of perigee: 169.0453°
revolutions per day: 12.42896854
mean anomaly at epoch: 191.1233°
orbit number at epoch: 27240

The dashed part of the orbit path shows where the satellite is in the earth's shadow,  

DLR